Vorticity
6 6 6 5 5 4 4 3 3 4 4 4 6 6 5 5 5 5 4 5 6 3 5 14 4 11 8 3 1 5 1 1 3 10 11 11 11 8
7 6 5 5 4 4 4 4 4 4 4 5 6 6 6 5 5 7 4 6 5 1 6 11 9 7 4 1 4 5 -0 4 12 12 11 13 11 6
7 6 5 5 4 4 4 4 5 4 4 4 6 5 6 6 5 7 5 9 -1 5 7 14 11 8 0 3 5 -2 3 12 9 8 16 8 9 4
6 6 5 4 5 5 5 5 4 4 4 5 6 7 7 7 5 4 4 8 5 1 15 10 6 2 3 6 0 0 10 8 6 13 7 12 8 6
4 4 3 4 4 4 4 3 3 3 4 5 6 8 7 6 5 1 7 -1 8 2 13 6 5 1 5 5 -1 8 6 6 12 10 10 9 7 7
1 1 2 2 3 4 4 4 4 5 5 6 7 7 6 -0 2 8 11 -1 7 14 10 4 1 4 5 1 4 12 10 6 11 10 7 8 6 10
5 5 4 4 5 5 4 4 5 6 7 8 7 5 1 8 11 7 9 1 3 13 6 2 3 6 5 2 11 4 7 12 7 7 9 5 10 10
7 7 7 7 6 5 6 6 6 7 6 5 4 3 14 13 12 8 11 14 4 10 5 2 3 8 -1 2 2 8 10 8 6 10 8 9 8 13
7 8 6 7 6 5 5 6 8 6 5 6 5 7 5 13 8 3 7 -3 14 8 2 5 2 1 -1 4 11 8 9 8 7 10 6 8 14 5
8 6 5 6 4 3 5 7 6 4 5 6 10 9 10 11 10 7 7 17 16 7 5 0 7 -3 4 18 9 9 8 7 11 8 6 12 8 7
4 5 5 11 -1 6 5 4 7 1 10 7 13 5 0 4 5 4 20 10 5 3 -3 15 1 2 17 7 9 9 8 10 8 7 12 8 6 6
-0 -2 4 4 10 9 1 3 5 12 10 5 10 -1 9 -0 16 12 11 3 2 1 13 -0 3 8 9 8 13 7 11 8 7 12 7 8 9 7
-2 13 16 9 4 10 2 5 17 3 5 10 6 -8 15 31 12 14 2 3 -0 2 3 1 4 9 8 13 6 10 6 6 11 9 10 9 6 6
15 9 7 5 -3 4 5 0 15 1 -2 6 9 5 39 19 13 1 2 3 3 3 2 5 14 9 10 8 10 5 7 8 13 13 6 4 6 6
5 -9 16 -5 3 4 9 3 -2 5 -12 -5 -3 44 17 12 5 -0 6 3 1 2 7 14 12 10 12 7 7 6 10 14 9 4 3 4 5 4
6 2 4 2 -8 11 10 12 13 12 -19 20 -7 24 10 -3 3 4 1 5 2 14 4 9 10 8 10 10 3 10 12 9 5 1 3 6 6 6
-4 45 -7 8 3 9 10 18 16 11 14 -2 28 9 2 -1 2 4 -2 8 7 9 9 13 3 9 12 4 8 15 13 5 3 4 7 6 5 7
19 7 14 18 11 13 19 19 24 15 22 30 17 6 -2 7 2 -1 11 8 10 5 13 5 10 12 7 5 16 13 4 3 4 6 6 6 7 9
13 14 14 8 13 9 7 13 11 19 11 -5 -6 4 3 2 -2 11 12 8 9 16 6 11 11 5 6 13 12 6 4 2 2 5 6 5 7 12
4 10 15 20 10 13 16 10 18 20 10 -3 2 9 -6 1 10 11 10 13 11 7 7 8 7 6 10 16 10 5 2 -0 2 3 7 6 7 15
9 12 10 8 13 18 16 12 8 2 7 -2 -6 4 4 10 10 13 13 6 4 11 9 8 7 7 18 14 3 6 4 5 3 5 5 6 8 18
11 11 10 13 13 12 9 9 5 6 4 -3 -0 11 10 14 12 3 8 6 12 10 7 8 5 17 17 3 2 -1 1 2 3 6 6 7 10 20
12 -1 3 20 8 -4 2 1 7 3 7 8 11 16 9 4 7 10 10 9 9 9 8 5 12 15 9 2 3 -0 0 2 3 3 5 8 13 22
Height
5816 5822 5828 5832 5835 5838 5841 5844 5846 5848 5849 5850 5850 5850 5849 5848 5846 5845 5842 5840 5837 5832 5829 5825 5820 5816 5811 5805 5798 5791 5785 5775 5765 5756 5745 5735 5725 5715
5811 5817 5822 5826 5830 5833 5835 5838 5841 5842 5844 5845 5844 5844 5843 5842 5840 5839 5836 5834 5830 5826 5823 5818 5813 5810 5804 5798 5790 5783 5775 5765 5756 5745 5735 5725 5717 5706
5805 5811 5816 5820 5823 5826 5830 5833 5835 5837 5838 5838 5838 5838 5837 5836 5834 5832 5830 5827 5823 5820 5816 5811 5807 5802 5796 5789 5783 5775 5765 5756 5745 5735 5726 5716 5705 5695
5799 5804 5809 5813 5817 5820 5823 5825 5828 5830 5831 5831 5831 5831 5831 5829 5827 5825 5824 5820 5817 5813 5809 5805 5800 5795 5788 5782 5775 5766 5757 5747 5737 5726 5714 5707 5696 5686
5792 5797 5802 5806 5810 5813 5816 5819 5821 5822 5823 5824 5824 5824 5823 5821 5820 5819 5816 5812 5809 5806 5802 5797 5792 5787 5780 5773 5766 5757 5747 5737 5728 5717 5707 5697 5686 5675
5784 5790 5795 5799 5802 5805 5809 5811 5814 5815 5816 5817 5817 5817 5815 5814 5813 5812 5809 5807 5803 5799 5793 5790 5785 5777 5771 5764 5757 5749 5738 5729 5719 5708 5697 5687 5677 5665
5777 5783 5787 5791 5794 5798 5801 5804 5806 5808 5809 5810 5809 5808 5807 5806 5805 5803 5801 5799 5796 5791 5787 5782 5776 5770 5763 5755 5748 5738 5729 5720 5709 5699 5689 5678 5667 5656
5769 5775 5779 5782 5787 5790 5793 5797 5799 5800 5801 5802 5801 5800 5799 5797 5797 5795 5792 5790 5788 5783 5779 5774 5767 5761 5755 5746 5737 5729 5720 5711 5701 5691 5680 5669 5657 5645
5761 5767 5770 5776 5779 5782 5785 5788 5792 5793 5793 5793 5792 5792 5792 5790 5789 5786 5784 5782 5779 5774 5770 5765 5759 5753 5745 5737 5729 5720 5710 5701 5692 5682 5672 5659 5647 5636
5753 5758 5763 5766 5771 5774 5777 5780 5783 5783 5785 5785 5785 5784 5784 5783 5781 5778 5776 5773 5770 5767 5762 5756 5751 5744 5736 5729 5720 5710 5700 5691 5681 5671 5662 5652 5640 5627
5744 5750 5755 5758 5762 5766 5770 5772 5774 5775 5776 5777 5777 5776 5775 5774 5772 5770 5768 5765 5762 5758 5753 5748 5742 5736 5728 5719 5709 5701 5692 5681 5671 5662 5652 5642 5632 5618
5736 5743 5747 5750 5754 5758 5761 5763 5765 5767 5768 5769 5769 5768 5766 5764 5763 5762 5759 5756 5754 5749 5745 5740 5733 5726 5718 5709 5701 5692 5681 5671 5661 5651 5641 5631 5622 5611
5727 5734 5739 5742 5745 5749 5752 5754 5756 5758 5759 5760 5760 5758 5755 5756 5754 5753 5750 5748 5745 5741 5735 5729 5723 5716 5707 5699 5692 5682 5672 5662 5652 5641 5630 5619 5609 5597
5719 5725 5729 5732 5735 5739 5741 5744 5747 5749 5750 5750 5749 5746 5746 5747 5746 5743 5742 5739 5735 5732 5726 5720 5714 5707 5699 5691 5682 5672 5663 5653 5642 5631 5620 5609 5597 5582
5709 5715 5718 5722 5725 5729 5731 5734 5737 5739 5739 5741 5738 5737 5737 5737 5736 5735 5733 5729 5725 5721 5716 5710 5704 5697 5690 5682 5674 5664 5653 5644 5635 5624 5611 5601 5591 5578
5699 5703 5708 5713 5718 5720 5722 5724 5726 5728 5730 5729 5727 5727 5728 5728 5728 5727 5723 5720 5716 5712 5707 5699 5693 5688 5680 5673 5664 5655 5647 5639 5629 5618 5603 5589 5577 5563
5689 5694 5699 5704 5707 5711 5713 5713 5714 5716 5717 5718 5717 5718 5719 5720 5719 5716 5713 5711 5706 5702 5697 5691 5685 5678 5671 5664 5656 5648 5639 5631 5622 5613 5601 5583 5566 5552
5680 5685 5691 5694 5697 5700 5700 5703 5704 5705 5707 5709 5709 5711 5713 5712 5709 5707 5705 5701 5697 5692 5687 5682 5676 5669 5662 5655 5648 5640 5633 5623 5613 5603 5591 5578 5560 5541
5673 5677 5682 5686 5688 5689 5692 5694 5696 5698 5700 5701 5703 5704 5704 5703 5701 5699 5696 5692 5687 5682 5677 5672 5665 5658 5652 5645 5640 5633 5624 5616 5607 5595 5583 5568 5553 5535
5666 5670 5673 5677 5680 5682 5684 5685 5688 5690 5692 5695 5696 5695 5695 5694 5692 5689 5685 5681 5676 5672 5667 5662 5656 5650 5643 5636 5629 5623 5618 5609 5600 5587 5576 5562 5544 5524
5660 5664 5665 5669 5673 5675 5677 5679 5682 5684 5686 5687 5687 5686 5685 5684 5681 5678 5674 5670 5667 5662 5658 5652 5646 5641 5635 5628 5620 5611 5603 5597 5588 5578 5567 5555 5540 5523
5652 5656 5659 5662 5665 5668 5671 5674 5675 5677 5678 5679 5679 5677 5675 5673 5670 5667 5664 5661 5657 5653 5649 5643 5638 5632 5626 5620 5613 5605 5595 5582 5571 5561 5551 5539 5526 5516
5646 5650 5653 5656 5659 5661 5662 5665 5666 5667 5668 5669 5670 5667 5664 5662 5660 5656 5653 5650 5647 5643 5639 5634 5630 5624 5617 5611 5605 5598 5589 5579 5568 5552 5536 5524 5511 5498